When you browse on this site, cookies collect data to enhance your experience and personalize the content and advertising you see.
Visit our Privacy Policy to learn more. By continuing to use the site, you agree to this use of cookies and data.
  • In Lithuania
  • List of Countries
  • For 7 days
  • Water Temperature
  • Satellite Maps
  • Weather Map
  • Weather Widgets
  • user-avatar
    Login

    Hourly Weather Solomenskoe

    Today, 11 December, Tuesday

    Time Temperature Precipitation Wind Pressure Humidity
    00:00 +6°C° 0 mm 2 mps 745 mmHg 92%
    01:00 +6°C° 0 mm 2 mps 745 mmHg 93%
    02:00 +6°C° 0 mm 2 mps 745 mmHg 94%
    03:00 +5°C° 0 mm 2 mps 745 mmHg 93%
    04:00 +5°C° 0.1 mm 2 mps 745 mmHg 93%
    05:00 +5°C° 0.1 mm 2 mps 745 mmHg 93%
    06:00 +6°C° 0.1 mm 1 mps 745 mmHg 94%
    07:00 +5°C° 0 mm 2 mps 744 mmHg 93%
    08:00 +5°C° 0 mm 2 mps 744 mmHg 93%
    09:00 +6°C° 0 mm 2 mps 744 mmHg 91%
    10:00 +6°C° 0 mm 2 mps 743 mmHg 90%
    11:00 +7°C° 0 mm 2 mps 742 mmHg 88%
    12:00 +7°C° 0 mm 3 mps 741 mmHg 87%
    13:00 +7°C° 0 mm 3 mps 741 mmHg 86%
    14:00 +8°C° 0 mm 3 mps 740 mmHg 85%
    15:00 +8°C° 0 mm 3 mps 740 mmHg 84%
    16:00 +8°C° 0 mm 3 mps 740 mmHg 86%
    17:00 +7°C° 0 mm 2 mps 740 mmHg 89%
    18:00 +8°C° 0 mm 1 mps 740 mmHg 91%
    19:00 +8°C° 0 mm 1 mps 740 mmHg 92%
    20:00 +7°C° 0 mm 2 mps 740 mmHg 93%
    21:00 +7°C° 0 mm 2 mps 741 mmHg 93%
    22:00 +6°C° 0.1 mm 2 mps 741 mmHg 94%
    23:00 +6°C° 0.1 mm 2 mps 742 mmHg 94%

    Tomorrow, 12 December, Wednesday

    Time Temperature Precipitation Wind Pressure Humidity
    00:00 +6°C° 0.1 mm 2 mps 742 mmHg 95%
    01:00 +7°C° 0.1 mm 1 mps 743 mmHg 94%
    02:00 +7°C° 0.1 mm 1 mps 743 mmHg 94%
    03:00 +7°C° 0.1 mm 1 mps 744 mmHg 94%
    04:00 +7°C° 0 mm 1 mps 744 mmHg 93%
    05:00 +7°C° 0 mm 1 mps 744 mmHg 93%
    06:00 +6°C° 0 mm 1 mps 744 mmHg 92%
    07:00 +7°C° 0 mm 1 mps 744 mmHg 92%
    08:00 +6°C° 0 mm 2 mps 744 mmHg 92%
    09:00 +6°C° 0 mm 2 mps 744 mmHg 92%
    10:00 +7°C° 0 mm 2 mps 743 mmHg 89%
    11:00 +7°C° 0 mm 2 mps 743 mmHg 87%
    12:00 +8°C° 0 mm 3 mps 742 mmHg 84%
    13:00 +8°C° 0.1 mm 2 mps 742 mmHg 85%
    14:00 +8°C° 0.1 mm 2 mps 742 mmHg 86%
    15:00 +8°C° 0.1 mm 2 mps 742 mmHg 86%
    16:00 +7°C° 0.2 mm 2 mps 743 mmHg 88%
    17:00 +7°C° 0.2 mm 2 mps 743 mmHg 90%
    18:00 +7°C° 0.2 mm 2 mps 743 mmHg 92%
    19:00 +7°C° 0.2 mm 2 mps 744 mmHg 92%
    20:00 +7°C° 0.2 mm 2 mps 744 mmHg 93%
    21:00 +7°C° 0.2 mm 2 mps 744 mmHg 93%
    22:00 +6°C° 0.2 mm 2 mps 745 mmHg 93%
    23:00 +6°C° 0.2 mm 2 mps 745 mmHg 93%

    Day after tomorrow, 13 December, Thursday

    Time Temperature Precipitation Wind Pressure Humidity
    00:00 +5°C° 0.2 mm 3 mps 745 mmHg 92%
    01:00 +5°C° 0.9 mm 3 mps 746 mmHg 92%
    02:00 +5°C° 0.9 mm 4 mps 746 mmHg 91%
    03:00 +5°C° 0.9 mm 5 mps 746 mmHg 90%
    04:00 +3°C° 0.3 mm 5 mps 746 mmHg 88%
    05:00 +3°C° 0.3 mm 5 mps 746 mmHg 86%
    06:00 +3°C° 0.3 mm 5 mps 747 mmHg 84%
    07:00 +3°C° 0.3 mm 5 mps 747 mmHg 82%
    08:00 +3°C° 0.3 mm 5 mps 748 mmHg 80%
    09:00 +3°C° 0.3 mm 5 mps 749 mmHg 78%
    10:00 +3°C° 0.3 mm 5 mps 749 mmHg 76%
    11:00 +4°C° 0.3 mm 4 mps 749 mmHg 73%
    12:00 +5°C° 0.3 mm 4 mps 749 mmHg 71%
    13:00 +5°C° 0.1 mm 4 mps 749 mmHg 69%
    14:00 +5°C° 0.1 mm 3 mps 750 mmHg 68%
    15:00 +5°C° 0.1 mm 3 mps 750 mmHg 66%
    16:00 +5°C° 0 mm 3 mps 751 mmHg 70%
    17:00 +5°C° 0 mm 2 mps 751 mmHg 73%
    18:00 +5°C° 0 mm 2 mps 752 mmHg 76%
    19:00 +5°C° 0 mm 2 mps 752 mmHg 77%
    20:00 +4°C° 0 mm 2 mps 752 mmHg 78%
    21:00 +4°C° 0 mm 2 mps 753 mmHg 79%
    22:00 +4°C° 0 mm 2 mps 753 mmHg 80%
    23:00 +4°C° 0 mm 2 mps 753 mmHg 80%

    14 December, Friday

    Time Temperature Precipitation Wind Pressure Humidity
    00:00 +3°C° 0 mm 3 mps 754 mmHg 81%
    01:00 +4°C° 0.1 mm 2 mps 754 mmHg 81%
    02:00 +3°C° 0.1 mm 2 mps 754 mmHg 82%
    03:00 +3°C° 0.1 mm 2 mps 755 mmHg 82%
    04:00 +3°C° 0 mm 2 mps 755 mmHg 83%
    05:00 +3°C° 0 mm 2 mps 755 mmHg 84%
    06:00 +3°C° 0 mm 2 mps 755 mmHg 85%
    07:00 +3°C° 0 mm 2 mps 755 mmHg 83%
    08:00 +3°C° 0 mm 2 mps 755 mmHg 82%
    09:00 +4°C° 0 mm 1 mps 755 mmHg 81%
    10:00 +5°C° 0 mm 1 mps 755 mmHg 75%
    11:00 +6°C° 0 mm 1 mps 754 mmHg 69%
    12:00 +7°C° 0 mm 1 mps 754 mmHg 63%
    13:00 +7°C° 0 mm 1 mps 754 mmHg 62%
    14:00 +7°C° 0 mm 1 mps 754 mmHg 60%
    15:00 +7°C° 0 mm 1 mps 754 mmHg 58%
    16:00 +7°C° 0 mm 1 mps 754 mmHg 61%
    17:00 +5°C° 0 mm 0 mps 755 mmHg 65%
    18:00 +5°C° 0 mm 0 mps 755 mmHg 68%
    19:00 +5°C° 0 mm 1 mps 755 mmHg 70%
    20:00 +5°C° 0 mm 1 mps 755 mmHg 71%
    21:00 +5°C° 0 mm 1 mps 756 mmHg 72%
    22:00 +4°C° 0 mm 2 mps 756 mmHg 74%
    23:00 +4°C° 0 mm 2 mps 756 mmHg 77%

    15 December, Saturday

    Time Temperature Precipitation Wind Pressure Humidity
    00:00 +3°C° 0 mm 2 mps 756 mmHg 79%
    01:00 +3°C° 0 mm 2 mps 756 mmHg 81%
    02:00 +3°C° 0 mm 2 mps 756 mmHg 82%
    03:00 +2°C° 0 mm 2 mps 756 mmHg 84%
    04:00 +2°C° 0 mm 2 mps 756 mmHg 85%
    05:00 +2°C° 0 mm 2 mps 756 mmHg 85%
    06:00 +3°C° 0 mm 1 mps 757 mmHg 85%
    07:00 +2°C° 0 mm 2 mps 757 mmHg 82%
    08:00 +2°C° 0 mm 2 mps 757 mmHg 79%
    09:00 +3°C° 0 mm 2 mps 757 mmHg 76%
    10:00 +4°C° 0 mm 2 mps 757 mmHg 69%
    11:00 +5°C° 0 mm 2 mps 757 mmHg 62%
    12:00 +7°C° 0 mm 2 mps 757 mmHg 55%
    13:00 +7°C° 0 mm 2 mps 757 mmHg 54%
    14:00 +7°C° 0 mm 2 mps 757 mmHg 52%
    15:00 +7°C° 0 mm 2 mps 757 mmHg 51%
    16:00 +6°C° 0 mm 2 mps 758 mmHg 56%
    17:00 +5°C° 0 mm 2 mps 758 mmHg 60%
    18:00 +4°C° 0 mm 2 mps 759 mmHg 65%
    19:00 +4°C° 0 mm 2 mps 759 mmHg 68%
    20:00 +3°C° 0 mm 2 mps 759 mmHg 71%
    21:00 +3°C° 0 mm 2 mps 759 mmHg 74%
    22:00 +2°C° 0 mm 2 mps 759 mmHg 77%
    23:00 +2°C° 0 mm 2 mps 760 mmHg 80%

    16 December, Sunday

    Time Temperature Precipitation Wind Pressure Humidity
    00:00 +1°C° 0 mm 2 mps 760 mmHg 84%
    01:00 +1°C° 0 mm 2 mps 760 mmHg 86%
    02:00 +1°C° 0 mm 2 mps 760 mmHg 88%
    03:00 -1°C° 0 mm 2 mps 760 mmHg 90%
    04:00 +1°C° 0 mm 1 mps 760 mmHg 91%
    05:00 +1°C° 0 mm 1 mps 760 mmHg 91%
    06:00 0°C° 0 mm 1 mps 760 mmHg 91%
    07:00 -1°C° 0 mm 2 mps 760 mmHg 89%
    08:00 -1°C° 0 mm 2 mps 761 mmHg 86%
    09:00 -1°C° 0 mm 2 mps 761 mmHg 84%
    10:00 0°C° 0 mm 3 mps 760 mmHg 80%
    11:00 0°C° 0 mm 3 mps 760 mmHg 76%
    12:00 +1°C° 0 mm 3 mps 760 mmHg 72%
    13:00 +1°C° 0 mm 3 mps 760 mmHg 72%
    14:00 0°C° 0 mm 4 mps 760 mmHg 71%
    15:00 0°C° 0 mm 4 mps 760 mmHg 71%
    16:00 -1°C° 0 mm 4 mps 760 mmHg 74%
    17:00 -1°C° 0 mm 3 mps 760 mmHg 77%
    18:00 -1°C° 0 mm 3 mps 760 mmHg 80%
    19:00 -1°C° 0 mm 3 mps 760 mmHg 80%
    20:00 -3°C° 0 mm 4 mps 760 mmHg 80%
    21:00 -3°C° 0 mm 4 mps 760 mmHg 81%
    22:00 -3°C° 0 mm 4 mps 760 mmHg 82%
    23:00 -3°C° 0 mm 4 mps 760 mmHg 82%
    Show more